Printer-friendly version
Follow the MPC on Twitter Follow the MPC on Facebook The MPC blog
Minor Planet Center

MPEC 2006-W95 : 2006 WO127

The following Minor Planet Electronic Circular may be linked-to from your own Web pages, but must not otherwise be redistributed electronically.

A form allowing access to any MPEC is at the bottom of this page.


Read MPEC 2006-W94 Read MPEC 2006-W96


M.P.E.C. 2006-W95                                Issued 2006 Nov. 27, 12:01 UT

     The Minor Planet Electronic Circulars contain information on unusual
         minor planets and routine data on comets.  They are published
   on behalf of Commission 20 of the International Astronomical Union by the
          Minor Planet Center, Smithsonian Astrophysical Observatory,
                          Cambridge, MA 02138, U.S.A.

             Prepared using the Tamkin Foundation Computer Network

                              MPC@CFA.HARVARD.EDU
          URL http://cfa-www.harvard.edu/iau/mpc.html  ISSN 1523-6714

                                  2006 WO127

Observations:
     K06WC7O* C2006 11 23.53176 12 27 23.07 -07 41 32.3          18.5 V EW095703
     K06WC7O  C2006 11 23.53407 12 27 23.58 -07 41 33.2          18.6 V EW095703
     K06WC7O  C2006 11 23.53641 12 27 24.15 -07 41 36.6          18.3 V EW095703
     K06WC7O  C2006 11 23.53872 12 27 24.73 -07 41 39.0          18.8 V EW095703
     K06WC7O  C2006 11 24.52700 12 31 20.38 -07 56 14.0          18.3 V EW095703
     K06WC7O  C2006 11 24.53010 12 31 21.10 -07 56 16.8          18.2 V EW095703
     K06WC7O  C2006 11 24.53322 12 31 21.82 -07 56 19.8          18.4 V EW095703
     K06WC7O  C2006 11 24.53631 12 31 22.62 -07 56 22.1          18.2 V EW095703
     K06WC7O  C2006 11 25.51646 12 35 15.03 -08 10 37.1          18.4 V EW095703
     K06WC7O  C2006 11 25.51968 12 35 15.75 -08 10 40.4          18.2 V EW095703
     K06WC7O  C2006 11 25.52197 12 35 16.40 -08 10 42.3          18.7 V EW095G96
     K06WC7O  C2006 11 25.52286 12 35 16.58 -08 10 43.0          18.9 V EW095703
     K06WC7O  C2006 11 25.52534 12 35 17.19 -08 10 45.5          18.6 V EW095G96
     K06WC7O  C2006 11 25.53208 12 35 18.74 -08 10 51.3          18.8 V EW095G96
     K06WC7O  C2006 11 26.48766 12 39 04.21 -08 24 31.1          19.1   EW095H05
     K06WC7O  C2006 11 26.50153 12 39 07.55 -08 24 43.8          19.5   EW095H05
     K06WC7O  C2006 11 26.52007 12 39 11.72 -08 24 59.1          19.0   EW095H05

Observer details:
703 Catalina Sky Survey.  Observer R. A. Kowalski.  Measurers E. C. Beshore,
    E. J. Christensen, G. J. Garradd, A. R. Gibbs, A. D. Grauer, R. E. Hill,
    R. A. Kowalski, S. M. Larson, R. H. McNaught.  0.68-m Schmidt + CCD.
G96 Mt. Lemmon Survey.  Observer E. C. Beshore.  Measurers E. C. Beshore,
    E. J. Christensen, G. J. Garradd, A. R. Gibbs, A. D. Grauer, R. E. Hill,
    R. A. Kowalski, S. M. Larson, R. H. McNaught.  1.5-m reflector + CCD.
H05 Edmund Kline Observatory, Deer Trail.  Observer J. Gafford.  0.46-m f/4.5
    reflector + CCD.

Orbital elements:
2006 WO127                                          PHA, Earth MOID = 0.0484 AU
Epoch 2006 Sept. 22.0 TT = JDT 2454000.5                MPC
M 340.84291              (2000.0)            P               Q
n   0.41042066     Peri.  308.84746     -0.42646751     -0.90346731
a   1.7932874      Node   166.20103     +0.87587937     -0.42443833
e   0.4716253      Incl.   10.45208     +0.22574497     -0.05999104
P   2.40           H   16.2           G   0.15           U   9
Residuals in seconds of arc
061123 703  0.1+  0.1+    061124 703  0.5-  0.0     061125 G96  0.4+  0.5-
061123 703 (0.5-  1.3+)   061124 703  0.6+  0.4+    061125 G96  0.0   0.5-
061123 703  0.3-  0.0     061125 703  0.7-  0.2+    061126 H05  0.4+  0.4+
061123 703  0.2+  0.3-    061125 703 (1.2-  0.3-)   061126 H05 (1.9+  0.5-)
061124 703  0.1-  0.3+    061125 G96  0.4+  0.2-    061126 H05  0.5-  0.1+
061124 703  0.2-  0.2+    061125 703  0.0   0.2-

Ephemeris:
2006 WO127               a,e,i = 1.79, 0.47, 10                  q = 0.9475
Date    TT    R. A. (2000) Decl.     Delta      r     Elong.  Phase     V
2006 11 21    12 17.22   -07 03.0    1.176    0.961    51.8    53.9    18.4
2006 12 01    12 56.54   -09 26.0    1.219    0.988    52.0    51.8    18.5
2006 12 11    13 33.70   -11 24.5    1.259    1.028    52.8    49.8    18.6
2006 12 21    14 08.67   -12 57.6    1.293    1.077    54.5    48.0    18.7
2006 12 31    14 41.35   -14 05.1    1.320    1.134    56.8    46.5    18.8
2007 01 10    15 11.67   -14 48.0    1.338    1.197    59.7    45.2    18.9
2007 01 20    15 39.56   -15 07.7    1.347    1.262    63.4    44.2    19.1
2007 01 30    16 04.87   -15 05.9    1.346    1.330    67.6    43.2    19.1
2007 02 09    16 27.50   -14 44.6    1.334    1.399    72.4    42.2    19.2
2007 02 19    16 47.28   -14 05.8    1.314    1.467    77.8    41.2    19.2
2007 03 01    17 03.96   -13 11.6    1.284    1.535    83.8    39.9    19.3
2007 03 11    17 17.31   -12 04.3    1.247    1.602    90.6    38.3    19.2
2007 03 21    17 27.01   -10 45.8    1.206    1.667    98.0    36.3    19.2
2007 03 31    17 32.69   -09 18.9    1.162    1.731   106.2    33.6    19.1
2007 04 10    17 34.04   -07 46.7    1.119    1.792   115.3    30.3    19.0
2007 04 20    17 30.80   -06 13.5    1.081    1.852   125.2    26.3    18.9
2007 04 30    17 23.06   -04 45.2    1.055    1.909   135.6    21.6    18.8
2007 05 10    17 11.43   -03 28.9    1.044    1.965   146.2    16.6    18.6
2007 05 20    16 57.07   -02 32.2    1.054    2.018   155.4    12.1    18.6
2007 05 30    16 41.76   -02 01.0    1.087    2.069   160.0     9.7    18.6
2007 06 09    16 27.36   -01 57.4    1.145    2.117   157.0    10.8    18.8
2007 06 19    16 15.33   -02 19.3    1.227    2.163   149.2    13.9    19.1
2007 06 29    16 06.58   -03 02.1    1.330    2.207   139.9    17.2    19.4
2007 07 09    16 01.36   -03 59.6    1.451    2.249   130.6    20.1    19.8
2007 07 19    15 59.52   -05 06.8    1.586    2.289   121.7    22.2    20.1
2007 07 29    16 00.73   -06 19.4    1.731    2.326   113.2    23.7    20.3
2007 08 08    16 04.57   -07 33.9    1.883    2.361   105.2    24.5    20.6
2007 08 18    16 10.65   -08 48.0    2.040    2.394    97.6    24.8    20.8
2007 08 28    16 18.62   -09 59.9    2.199    2.425    90.3    24.6    21.0
2007 09 07    16 28.18   -11 08.0    2.358    2.454    83.3    24.1    21.1
2007 09 17    16 39.09   -12 11.4    2.514    2.481    76.5    23.2    21.3
2007 09 27    16 51.14   -13 09.2    2.666    2.505    69.9    22.1    21.4
2007 10 07    17 04.16   -14 00.5    2.812    2.528    63.4    20.7    21.5
2007 10 17    17 18.01   -14 44.8    2.950    2.548    57.0    19.2    21.6
2007 10 27    17 32.55   -15 21.6    3.078    2.566    50.7    17.4    21.6
2007 11 06    17 47.66   -15 50.6    3.195    2.583    44.4    15.6    21.6
2007 11 16    18 03.24   -16 11.2    3.300    2.597    38.2    13.6    21.7
2007 11 26    18 19.18   -16 23.5    3.392    2.609    32.1    11.6    21.6
2007 12 06    18 35.39   -16 27.3    3.469    2.619    26.0     9.5    21.6
2007 12 16    18 51.78   -16 22.6    3.530    2.627    20.0     7.4    21.6
2007 12 26    19 08.26   -16 09.5    3.576    2.633    14.2     5.3    21.5
2008 01 05    19 24.75   -15 48.4    3.604    2.637     9.0     3.3    21.4
2008 01 15    19 41.18   -15 19.5    3.616    2.640     6.0     2.2    21.4
2008 01 25    19 57.48   -14 43.4    3.610    2.640     8.2     3.1    21.4
2008 02 04    20 13.58   -14 00.5    3.587    2.638    13.3     4.9    21.5
2008 02 14    20 29.42   -13 11.6    3.548    2.634    19.0     7.0    21.6
2008 02 24    20 44.96   -12 17.2    3.492    2.628    24.9     9.1    21.6
2008 03 05    21 00.14   -11 18.2    3.421    2.620    30.9    11.2    21.7
2008 03 15    21 14.92   -10 15.4    3.334    2.610    37.0    13.3    21.7
2008 03 25    21 29.23   -09 09.7    3.234    2.598    43.2    15.2    21.7
2008 04 04    21 43.06   -08 02.0    3.121    2.584    49.4    17.1    21.6

Timothy B. Spahr             (C) Copyright 2006 MPC           M.P.E.C. 2006-W95

Read MPEC 2006-W94 Read MPEC 2006-W96


MPEC number:

Enter an MPEC number in one of the following forms:

  • 1997-B01 (the full form)
  • J97B01 (the packed version of the full form)
  • B01 (the abbreviated form)

Valid HTML 4.01!